轨道通信卫星FM41星 (ORBCOMM FM41)

导读

ORBCOMM FM 41是ORBCOMM(轨道通信公司)旗下的低轨通信卫星,由轨道科学公司研制,于2008年6月19日发射入轨。该卫星属于ORBCOMM第二代低轨卫星星座,主要提供全球机器对机器(M2M)通信服务,支持船舶跟踪、远程设备监控、物联网数据传输等应用,为全球物流、海事等领域提供稳定的窄带通信连接。

基本信息
目录编号:
33061
目录名称:
ORBCOMM FM 41
国际标识:
2008-031B
轨道中心:
EARTH
卫星名称:
轨道通信卫星FM41星
卫星全名:
轨道通信卫星FM41星 (ORBCOMM FM41)
卫星状态:
在轨 (已飞行6567 天)
发射日期:
2008-06-19 UTC
国别 :
(ORB)
星等 :
--
轨道信息
数据来源 国际轨道数据
星历时间: 2026-06-11T07:01:45+0800
1天前
查看轨道信息
半长轴: 6999.304km
偏心率: 0.0003539
轨道倾角: 48.444°
近地点辐角 133.378°
升交点赤经 52.154°
平近点角 244.180°
近地点: 618.689km
远地点: 623.645km
周期: 97.127分钟
每日圈数: 14.825882
详细信息
固有亮度:
8
最大亮度:
6.2
平衡模式:
三轴稳定
覆盖范围:
全球
运营商:
轨道通信公司
运营商所在国:
美国
制造商(研发单位):
轨道ATK公司
制造商所在国:
美国
使用方式:
暂无
卫星简介
轨道通信FM(Orbcomm FM)是一系列低地球轨道通信卫星,由美国卫星通信公司 Orbcomm运营。 截至2015年12月,已有63颗此类卫星绕地球运行。该卫星已退役。
2D轨道图
3D轨道图
轨道高度分析图
轨道倾角分析图
轨道综合分析图
查看轨道综合分析图